Waterford, MI

9:27 AM EST on December 03, 2016 (GMT -0500)
Oakland County International

Weather History for KPTK - July, 2013

Change the Weather History Date:

Monday, July 1, 2013

  Actual Average Record
Temperature  
Mean Temperature 62 °F -  
Max Temperature 68 °F 80 °F 93 °F (2002)
Min Temperature 59 °F 59 °F 51 °F (2001)
Degree Days  
Heating Degree Days 2    
Growing Degree Days 12 (Base 50)    
Moisture  
Dew Point 52 °F    
Average Humidity 67    
Maximum Humidity 90    
Minimum Humidity 52    
Precipitation  
Precipitation 0.18 in - - ()
Sea Level Pressure  
Sea Level Pressure 30.02 in    
Wind  
Wind Speed 9 mph (NNE)    
Max Wind Speed 14 mph    
Max Gust Speed 22 mph    
Visibility 10 miles    
Events Rain    
Averages and records for this station are not official NWS values.
T = Trace of Precipitation, MM = Missing Value Source: NWS Daily Summary

Daily Weather History Graph

Daily Weather History Graph

Search for Another Location

Airport or City:

Trip Planner

Search our weather history database for the weather conditions in past years. The results will help you decide how hot, cold, wet, or windy it might be!

Date:

Astronomy

Jul. 01, 2013 Rise Set
Actual Time 5:59 AM EDT 9:15 PM EDT
Civil Twilight 5:24 AM EDT 9:50 PM EDT
Nautical Twilight 4:39 AM EDT 10:35 PM EDT
Astronomical Twilight 3:44 AM EDT 11:29 PM EDT
Moon 1:34 AM EDT (7/1) 3:25 PM EDT (7/1)
Length of Visible Light 16h 25m
Length of Day
15h 15m
Waning Crescent, 35% of the Moon is Illuminated
Jul 1
Waning Crescent
Jul 8
New
Jul 15
First Quarter
Jul 22
Full
Jul 29
Last Quarter

Hourly Weather History & Observations

Time (EDT) Temp. Dew Point Humidity Pressure Visibility Wind Dir Wind Speed Gust Speed Precip Events Conditions
12:53 AM 61.0 °F 43.0 °F 52% 29.96 in 10.0 mi NNE 10.4 mph - N/A   Clear
1:53 AM 60.1 °F 45.0 °F 57% 29.96 in 10.0 mi NNE 6.9 mph - N/A   Clear
2:53 AM 60.1 °F 46.9 °F 62% 29.95 in 10.0 mi NNE 8.1 mph - N/A   Clear
3:53 AM 60.1 °F 48.0 °F 64% 29.95 in 10.0 mi NNE 9.2 mph - N/A   Clear
4:53 AM 60.1 °F 48.0 °F 64% 29.95 in 10.0 mi NNE 10.4 mph - N/A   Clear
5:53 AM 60.1 °F 48.0 °F 64% 29.98 in 10.0 mi NNE 8.1 mph - N/A   Mostly Cloudy
6:53 AM 61.0 °F 48.0 °F 62% 29.97 in 10.0 mi NNE 9.2 mph - N/A   Overcast
7:53 AM 62.1 °F 48.9 °F 62% 29.98 in 10.0 mi NNE 10.4 mph - N/A   Overcast
8:53 AM 64.0 °F 50.0 °F 60% 29.99 in 10.0 mi NNE 9.2 mph - N/A   Overcast
9:53 AM 66.0 °F 52.0 °F 60% 30.00 in 10.0 mi NNE 11.5 mph - N/A   Overcast
10:53 AM 66.0 °F 53.1 °F 63% 30.00 in 10.0 mi NNE 13.8 mph 19.6 mph N/A   Overcast
11:53 AM 66.9 °F 53.1 °F 61% 30.02 in 10.0 mi NNE 12.7 mph - N/A   Overcast
12:53 PM 66.9 °F 51.1 °F 57% 30.03 in 10.0 mi NE 13.8 mph 21.9 mph 0.00 in   Overcast
1:53 PM 66.9 °F 51.1 °F 57% 30.04 in 10.0 mi NE 9.2 mph - 0.00 in   Overcast
2:53 PM 66.9 °F 53.1 °F 61% 30.05 in 10.0 mi NNE 12.7 mph 16.1 mph 0.00 in   Overcast
3:53 PM 66.9 °F 54.0 °F 63% 30.04 in 10.0 mi NNE 8.1 mph - 0.00 in Rain Light Rain
4:53 PM 66.9 °F 54.0 °F 63% 30.04 in 10.0 mi NE 9.2 mph - 0.00 in   Overcast
5:53 PM 66.0 °F 55.9 °F 70% 30.05 in 10.0 mi NE 6.9 mph - 0.01 in Rain Light Rain
6:53 PM 64.0 °F 57.9 °F 80% 30.05 in 10.0 mi NNE 6.9 mph - 0.03 in Rain Light Rain
7:53 PM 63.0 °F 59.0 °F 87% 30.06 in 10.0 mi North 5.8 mph - 0.03 in Rain Light Rain
8:53 PM 62.1 °F 57.9 °F 86% 30.08 in 7.0 mi ENE 5.8 mph - 0.02 in Rain Light Rain
9:53 PM 60.1 °F 57.0 °F 90% 30.08 in 10.0 mi NNW 8.1 mph - 0.09 in   Overcast
10:53 PM 59.0 °F 54.0 °F 83% 30.07 in 10.0 mi NNE 9.2 mph - 0.00 in   Overcast
11:53 PM 59.0 °F 52.0 °F 78% 30.06 in 10.0 mi NNE 6.9 mph - 0.00 in Rain Light Rain